This demonstration page uses our WeatherBlox Daily Observations layout. Learn more.

Left ArrowRight Arrow

Hourly Observations for May 14, 2018

Temp ( °F °C ) Dew Point ( °F °C ) Humidity (%) Winds ( mph kmh ) Pressure ( in mb ) Visibility ( mi km ) Precip ( " mm )
12:02 am 00:02 Cloudy with Mist and Fog 55 13 55 13 100 100 N 10 17 29.94 1014 6 10 0.00 0.00
12:53 am 00:53 Cloudy with Mist and Fog 56 13.3 55 12.8 97 97 N 8 13 29.96 1015 5 8 0.00 0.00
1:53 am 01:53 Cloudy with Mist and Fog 55 12.8 55 12.8 100 100 NE 7 11 29.97 1015 5 8 0.00 0.00
2:53 am 02:53 Cloudy with Mist and Fog 55 12.8 55 12.8 100 100 N 7 11 29.98 1015 5 8 0.00 0.00
3:17 am 03:17 Cloudy with Nearby Thunderstorms 55 12.8 55 12.8 100 100 NNW 13 20 30.00 1016 4 6 0.00 0.00
3:32 am 03:32 Cloudy with Thunderstorms 55 13 55 13 100 100 N 9 15 29.94 1014 6 10 0.00 0.00
3:51 am 03:51 Cloudy with Mist and Fog 54 12 54 12 100 100 NNE 9 15 29.94 1014 5 8 0.00 0.00
3:53 am 03:53 Cloudy with Mist and Fog 54 12.2 54 12.2 100 100 NNE 9 15 29.93 1014 5 8 0.00 0.00
4:53 am 04:53 Cloudy 54 12.2 54 12.2 100 100 NNW 17 28 29.93 1014 10 16 0.00 0.03
5:02 am 05:02 Cloudy with Nearby Thunderstorms 54 12.2 54 12.2 100 100 NNW 13 20 29.94 1014 10 16 0.00 0.00
5:11 am 05:11 Cloudy 54 12.2 54 12.2 100 100 N 16 26 29.94 1014 10 16 0.00 0.00
5:41 am 05:41 Cloudy 54 12 54 12 100 100 N 16 26 29.94 1014 10 16 0.00 0.00
5:53 am 05:53 Cloudy 54 12.2 54 12.2 100 100 N 14 22 29.93 1013 10 16 0.00 0.00
6:53 am 06:53 Mostly Cloudy 55 12.8 54 12.2 96 96 NNW 12 19 29.98 1015 10 16 0.00 0.03
7:48 am 07:48 Cloudy with Nearby Thunderstorms 55 13 55 13 100 100 N 8 13 30.00 1016 10 16 0.00 0.00
7:53 am 07:53 Cloudy with Nearby Thunderstorms 55 12.8 55 12.8 100 100 NNE 6 9 30.00 1016 6 10 0.05 1.27
8:08 am 08:08 Cloudy with Rain 55 13 55 13 100 100 NNW 5 7 30.03 1017 3 5 0.00 0.00
8:53 am 08:53 Mostly Cloudy 55 12.8 55 12.8 100 100 ESE 7 11 29.98 1015 10 16 0.08 2.03
9:53 am 09:53 Partly Cloudy 58 14.4 57 13.9 97 97 ENE 7 11 29.96 1014 10 16 0.00 0.00
10:29 am 10:29 Partly Cloudy 61 16.1 59 15 93 93 ENE 8 13 29.94 1014 10 16 0.00 0.00
10:53 am 10:53 Mostly Sunny 62 16.7 59 15 90 90 E 9 15 29.95 1014 10 16 0.00 0.00
11:40 am 11:40 Mostly Cloudy 65 18.3 60 15.6 84 84 N 9 15 29.94 1014 10 16 0.00 0.00
11:53 am 11:53 Cloudy 64 17.8 60 15.6 87 87 NNW 15 24 29.97 1015 10 16 0.00 0.00
12:27 pm 12:27 Cloudy 61 16.1 58 14.4 90 90 NNW 15 24 29.97 1015 10 16 0.00 0.00
12:53 pm 12:53 Cloudy 62 16.7 58 14.4 86 86 NNW 17 28 29.97 1015 10 16 0.00 0.00
1:04 pm 13:04 Cloudy 63 17.2 58 14.4 84 84 N 15 24 29.94 1014 10 16 0.00 0.00
1:40 pm 13:40 Cloudy 64 18 57 14 78 78 N 14 22 29.91 1013 10 16 0.00 0.00
1:53 pm 13:53 Cloudy 68 20 59 15 73 73 N 14 22 29.96 1014 10 16 0.00 0.00
2:53 pm 14:53 Cloudy 69 20.6 59 15 70 70 NNW 9 15 29.95 1014 10 16 0.00 0.00
3:03 pm 15:03 Cloudy 70 21 61 16 73 73 N 8 13 29.91 1013 10 16 0.00 0.00
3:53 pm 15:53 Cloudy 71 21.7 60 15.6 68 68 N 13 20 29.91 1013 10 16 0.00 0.00
4:53 pm 16:53 Cloudy 70 21.1 59 15 68 68 N 18 30 29.89 1012 10 16 0.00 0.00
5:53 pm 17:53 Cloudy 69 20.6 60 15.6 73 73 N 14 22 29.90 1012 10 16 0.00 0.00
6:53 pm 18:53 Cloudy 67 19.4 60 15.6 79 79 NNE 10 17 29.90 1012 10 16 0.00 0.00
7:53 pm 19:53 Cloudy 66 18.9 60 15.6 81 81 NNE 8 13 29.90 1013 10 16 0.00 0.00
8:53 pm 20:53 Cloudy 64 17.8 60 15.6 87 87 NNE 6 9 29.92 1013 10 16 0.00 0.00
9:53 pm 21:53 Clear 61 16.1 58 14.4 90 90 NE 8 13 29.93 1014 10 16 0.00 0.00
10:53 pm 22:53 Mostly Cloudy 60 15.6 58 14.4 93 93 N 5 7 29.96 1015 10 16 0.00 0.00
11:53 pm 23:53 Cloudy 61 16.1 59 15 93 93 N 6 9 29.96 1015 10 16 0.00 0.00

Powered by AerisWeather